EW1527 Weather Reports


time (UTC)temp
C
wind
direction
speed
KPH
gust
KPH
rain 1hr
cm
rain 24hr
cm
rain mn
cm
humidity
%
barometer
mb
20260506211514 18 1 8.0 22.5 0.00 0.10 0.10 77 1008.1
20260506210016 18 1 6.4 20.9 0.00 0.10 0.10 78 1008.1
20260506204512 18 1 11.3 33.8 0.00 0.10 0.10 79 1008.0
20260506203012 18 1 12.9 25.7 0.00 0.10 0.10 80 1007.9
20260506201512 18 1 8.0 19.3 0.00 0.10 0.10 80 1008.0
20260506200024 17 1 11.3 30.6 0.00 0.10 0.10 81 1008.2
20260506194512 17 1 6.4 22.5 0.00 0.10 0.10 82 1008.2
20260506193014 17 1 14.5 25.7 0.00 0.10 0.10 82 1008.5
20260506191512 17 1 11.3 27.4 0.00 0.10 0.10 83 1008.6
20260506190014 17 1 8.0 25.7 0.00 0.10 0.10 83 1008.7
20260506184512 16 1 6.4 33.8 0.00 0.10 0.10 83 1008.7
20260506183011 16 1 11.3 24.1 0.00 0.10 0.10 83 1008.8
20260506181512 16 1 9.7 27.4 0.00 0.10 0.10 83 1008.9
20260506180016 16 1 11.3 27.4 0.00 0.10 0.10 83 1008.8
20260506174512 16 1 3.2 16.1 0.00 0.10 0.10 84 1009.0
20260506173011 16 1 9.7 32.2 0.00 0.10 0.10 84 1009.0
20260506171513 16 1 8.0 16.1 0.03 0.10 0.10 85 1009.1
20260506170016 16 1 8.0 20.9 0.05 0.10 0.10 87 1009.0
20260506164512 16 1 4.8 12.9 0.08 0.10 0.10 87 1009.2
20260506163022 16 1 3.2 8.0 0.10 0.10 0.10 87 1009.4
20260506161512 16 1 1.6 11.3 0.08 0.08 0.08 86 1010.2
20260506160016 16 1 4.8 22.5 0.05 0.05 0.05 84 1010.5
20260506154516 16 1 3.2 16.1 0.03 0.03 0.03 82 1010.6
20260506153012 17 1 3.2 24.1 0.00 0.00 0.00 80 1010.4
20260506151514 17 1 9.7 20.9 0.00 0.00 0.00 75 1010.5
20260506150014 18 1 4.8 27.4 0.00 0.00 0.00 72 1010.1
20260506144512 18 1 8.0 35.4 0.00 0.00 0.00 70 1010.6
20260506143016 18 1 8.0 37.0 0.00 0.00 0.00 67 1010.5
20260506141513 19 1 19.3 33.8 0.00 0.00 0.00 67 1010.4
20260506140013 19 1 14.5 30.6 0.00 0.00 0.00 67 1010.3
20260506134513 18 1 8.0 27.4 0.00 0.00 0.00 69 1010.4
20260506133011 18 1 6.4 25.7 0.00 0.00 0.00 70 1010.4
20260506131519 18 1 16.1 29.0 0.00 0.00 0.00 69 1010.5
20260506130013 18 1 8.0 29.0 0.00 0.00 0.00 70 1010.9
20260506124510 18 1 8.0 22.5 0.00 0.00 0.00 71 1010.6
20260506123011 18 1 6.4 17.7 0.00 0.00 0.00 71 1010.4
20260506121510 17 1 4.8 17.7 0.00 0.00 0.00 72 1010.4
20260506120013 17 1 4.8 17.7 0.00 0.00 0.00 74 1010.6
20260506114510 17 1 6.4 19.3 0.00 0.00 0.00 73 1010.5
20260506113015 17 1 4.8 16.1 0.00 0.00 0.00 74 1010.4
20260506111511 17 1 6.4 24.1 0.00 0.00 0.00 74 1010.5
20260506110013 17 1 4.8 12.9 0.00 0.00 0.00 75 1010.4
20260506104511 17 1 3.2 14.5 0.00 0.00 0.00 75 1010.4
20260506103022 17 1 6.4 24.1 0.00 0.00 0.00 76 1010.3
20260506101510 17 1 3.2 11.3 0.00 0.00 0.00 76 1010.3
20260506100013 17 1 6.4 14.5 0.00 0.00 0.00 76 1010.3
20260506094510 17 1 4.8 22.5 0.00 0.00 0.00 76 1010.1
20260506093013 17 1 6.4 16.1 0.00 0.00 0.00 75 1010.2
20260506091514 17 1 4.8 11.3 0.00 0.00 0.00 75 1010.2
20260506090013 17 1 4.8 12.9 0.00 0.00 0.00 75 1010.2
20260506084515 17 1 6.4 27.4 0.00 0.00 0.00 75 1010.3
20260506083010 17 1 3.2 9.7 0.00 0.00 0.00 75 1010.3
20260506081511 17 1 4.8 14.5 0.00 0.00 0.00 75 1010.5
20260506073011 18 1 3.2 9.7 0.00 0.00 0.00 73 1010.6
20260506071510 18 1 4.8 16.1 0.00 0.00 0.00 73 1010.7
20260506061511 18 1 6.4 12.9 0.00 0.00 0.00 71 1010.8
20260506044511 19 1 9.7 16.1 0.00 0.00 0.00 66 1011.4
20260506043013 19 1 6.4 12.9 0.00 0.00 0.00 65 1011.4
20260506041514 19 1 4.8 14.5 0.00 0.00 0.00 64 1011.5
20260506040019 20 1 4.8 11.3 0.00 0.00 0.00 63 1011.4
20260506034518 20 1 4.8 17.7 0.00 0.00 0.00 61 1011.3
20260506033013 20 1 4.8 14.5 0.00 0.00 0.00 60 1011.3
20260506031513 20 1 4.8 17.7 0.00 0.00 0.00 59 1011.3
20260506030015 20 1 4.8 25.7 0.00 0.00 0.00 59 1011.5
20260506024513 20 1 4.8 12.9 0.00 0.00 0.00 58 1011.5
20260506023013 20 1 3.2 9.7 0.00 0.00 0.00 58 1011.5
20260506021513 20 1 3.2 9.7 0.00 0.00 0.00 58 1011.5
20260506020029 20 1 4.8 11.3 0.00 0.00 0.00 57 1011.5
20260506014522 21 1 6.4 22.5 0.00 0.00 0.00 56 1011.5
20260506013013 21 1 3.2 16.1 0.00 0.00 0.00 54 1011.2
20260506011514 22 1 4.8 12.9 0.00 0.00 0.00 49 1011.1
20260506010019 22 1 3.2 14.5 0.00 0.00 0.00 47 1010.9
20260506004523 23 1 3.2 11.3 0.00 0.00 0.00 45 1010.8
20260506003013 23 1 3.2 9.7 0.00 0.00 0.00 41 1010.6
20260506001513 24 1 12.9 25.7 0.00 0.00 0.00 40 1010.4
20260506000023 24 1 6.4 11.3 0.00 0.00 0.00 40 1010.2
20260505234514 24 1 6.4 29.0 0.00 0.00 0.00 40 1010.2
20260505233013 25 1 6.4 16.1 0.00 0.00 0.00 40 1010.1
20260505231514 25 1 8.0 22.5 0.00 0.00 0.00 39 1010.0
20260505230029 25 1 8.0 27.4 0.00 0.00 0.00 39 1009.9
20260505224518 26 208 14.5 29.0 0.00 0.00 0.00 37 1009.9
20260505223013 26 210 9.7 33.8 0.00 0.00 0.00 35 1009.8
20260505221513 26 190 16.1 32.2 0.00 0.00 0.00 33 1009.7
20260505220015 26 200 14.5 25.7 0.00 0.00 0.00 32 1009.7
20260505214516 26 171 11.3 38.6 0.00 0.00 0.00 32 1009.5
20260505213016 26 177 9.7 29.0 0.00 0.00 0.00 32 1009.6